Time,TemperatureF,DewpointF,PressureIn,WindDirection,WindDirectionDegrees,WindSpeedMPH,WindSpeedGustMPH,Humidity,HourlyPrecipIn,Conditions,Clouds,dailyrainin,SoftwareType,DateUTC
2013-07-28 00:00:00,79.2,53.5,29.82,SW,236,0.0,0.0,41,0.00,,---,0.00,VWS V13.01,2013-07-28 07:00:00,
2013-07-28 00:30:00,78.6,53.0,29.81,WSW,239,0.0,0.0,41,0.00,,---,0.00,VWS V13.01,2013-07-28 07:30:00,
2013-07-28 01:00:00,78.2,52.6,29.80,South,175,0.0,0.0,41,0.00,,---,0.00,VWS V13.01,2013-07-28 08:00:00,
2013-07-28 01:30:00,77.9,52.3,29.81,South,178,0.0,0.0,41,0.00,,---,0.00,VWS V13.01,2013-07-28 08:30:00,
2013-07-28 01:59:00,77.5,52.0,29.81,SSW,200,0.0,0.0,41,0.00,,---,0.00,VWS V13.01,2013-07-28 08:59:00,
2013-07-28 02:29:00,77.2,52.4,29.80,SSE,167,0.0,0.0,42,0.00,,---,0.00,VWS V13.01,2013-07-28 09:29:00,
2013-07-28 02:59:00,76.9,52.7,29.79,West,260,0.0,0.0,43,0.00,,---,0.00,VWS V13.01,2013-07-28 09:59:00,
2013-07-28 03:29:00,75.9,53.1,29.79,SSW,193,0.0,0.0,45,0.00,,---,0.00,VWS V13.01,2013-07-28 10:29:00,
2013-07-28 03:59:00,75.6,52.8,29.80,SSW,212,0.0,0.0,45,0.00,,---,0.00,VWS V13.01,2013-07-28 10:59:00,
2013-07-28 04:29:00,74.9,52.8,29.78,SSE,152,0.0,0.0,46,0.00,,---,0.00,VWS V13.01,2013-07-28 11:29:00,
2013-07-28 04:59:00,74.4,52.3,29.79,SSE,168,0.0,0.0,46,0.00,,---,0.00,VWS V13.01,2013-07-28 11:59:00,
2013-07-28 05:30:00,73.5,52.1,29.78,South,180,0.0,0.0,47,0.00,,---,0.00,VWS V13.01,2013-07-28 12:30:00,
2013-07-28 06:00:00,73.2,51.8,29.79,SSE,162,0.0,0.0,47,0.00,,---,0.00,VWS V13.01,2013-07-28 13:00:00,
2013-07-28 06:30:00,72.8,52.5,29.79,SSW,213,0.0,0.0,49,0.00,,---,0.00,VWS V13.01,2013-07-28 13:30:00,
2013-07-28 07:00:00,73.7,52.8,29.80,South,178,0.0,0.0,48,0.00,,---,0.00,VWS V13.01,2013-07-28 14:00:00,
2013-07-28 07:29:00,75.8,53.6,29.80,South,176,0.0,0.0,46,0.00,,---,0.00,VWS V13.01,2013-07-28 14:29:00,
2013-07-28 08:00:00,78.5,52.9,29.80,NNW,337,0.0,0.0,41,0.00,,---,0.00,VWS V13.01,2013-07-28 15:00:00,
2013-07-28 08:29:00,81.4,51.9,29.81,NW,325,0.0,0.0,36,0.00,,---,0.00,VWS V13.01,2013-07-28 15:29:00,
2013-07-28 09:00:00,83.9,50.9,29.81,West,275,0.0,0.0,32,0.00,,---,0.00,VWS V13.01,2013-07-28 16:00:00,
2013-07-28 09:29:00,86.2,49.3,29.80,SE,143,0.0,0.0,28,0.00,,---,0.00,VWS V13.01,2013-07-28 16:29:00,
2013-07-28 09:59:00,88.9,49.6,29.80,SSW,210,0.0,0.0,26,0.00,,---,0.00,VWS V13.01,2013-07-28 16:59:00,
2013-07-28 10:29:00,89.9,49.4,29.81,WNW,303,0.0,0.0,25,0.00,,---,0.00,VWS V13.01,2013-07-28 17:29:00,
2013-07-28 10:59:00,92.0,50.1,29.80,SE,127,0.0,0.0,24,0.00,,---,0.00,VWS V13.01,2013-07-28 17:59:00,
2013-07-28 11:30:00,93.3,51.2,29.80,ESE,120,0.0,0.0,24,0.00,,---,0.00,VWS V13.01,2013-07-28 18:30:00,
2013-07-28 12:00:00,94.2,50.8,29.79,NW,317,0.0,0.0,23,0.00,,---,0.00,VWS V13.01,2013-07-28 19:00:00,
2013-07-28 12:30:00,94.6,51.1,29.77,WNW,300,0.0,0.0,23,0.00,,---,0.00,VWS V13.01,2013-07-28 19:30:00,
2013-07-28 13:00:00,94.4,47.2,29.77,WSW,246,0.0,0.0,20,0.00,,---,0.00,VWS V13.01,2013-07-28 20:00:00,
2013-07-28 15:00:00,93.1,43.4,29.75,SSW,200,0.0,0.0,18,0.00,,---,0.00,VWS V13.01,2013-07-28 22:00:00,
2013-07-28 15:29:00,91.6,43.5,29.74,South,191,0.0,0.0,19,0.00,,---,0.00,VWS V13.01,2013-07-28 22:29:00,
2013-07-28 15:59:00,90.4,45.2,29.74,South,176,0.0,0.0,21,0.00,,---,0.00,VWS V13.01,2013-07-28 22:59:00,
2013-07-28 16:29:00,90.2,45.0,29.74,South,182,0.0,0.0,21,0.00,,---,0.00,VWS V13.01,2013-07-28 23:29:00,
2013-07-28 16:59:00,89.9,43.5,29.75,South,191,0.0,0.0,20,0.00,,---,0.00,VWS V13.01,2013-07-28 23:59:00,
2013-07-28 17:30:00,88.2,39.4,29.76,SSE,156,0.0,0.0,18,0.00,,---,0.00,VWS V13.01,2013-07-29 00:30:00,
2013-07-28 18:00:00,86.8,42.2,29.76,SSW,206,0.0,0.0,21,0.00,,---,0.00,VWS V13.01,2013-07-29 01:00:00,
2013-07-28 18:30:00,85.3,41.0,29.76,SE,138,0.0,0.0,21,0.00,,---,0.00,VWS V13.01,2013-07-29 01:30:00,
2013-07-28 19:00:00,83.2,42.7,29.76,South,186,0.0,0.0,24,0.00,,---,0.00,VWS V13.01,2013-07-29 02:00:00,
2013-07-28 19:30:00,81.0,39.8,29.75,South,189,0.0,0.0,23,0.00,,---,0.00,VWS V13.01,2013-07-29 02:30:00,
2013-07-28 20:29:00,77.4,44.4,29.78,South,175,0.0,0.0,31,0.00,,---,0.00,VWS V13.01,2013-07-29 03:29:00,
2013-07-28 20:59:00,76.5,45.3,29.76,South,169,0.0,0.0,33,0.00,,---,0.00,VWS V13.01,2013-07-29 03:59:00,
2013-07-28 21:29:00,76.1,42.5,29.80,SE,142,0.0,0.0,30,0.00,,---,0.00,VWS V13.01,2013-07-29 04:29:00,
2013-07-28 21:59:00,75.6,42.9,29.79,South,191,0.0,0.0,31,0.00,,---,0.00,VWS V13.01,2013-07-29 04:59:00,
2013-07-28 22:29:00,74.7,41.2,29.79,South,171,0.0,0.0,30,0.00,,---,0.00,VWS V13.01,2013-07-29 05:29:00,
2013-07-28 22:59:00,74.2,43.3,29.79,SSE,166,0.0,0.0,33,0.00,,---,0.00,VWS V13.01,2013-07-29 05:59:00,
2013-07-28 23:29:00,73.7,40.4,29.79,SW,222,0.0,0.0,30,0.00,,---,0.00,VWS V13.01,2013-07-29 06:29:00,